sat.trackr.live / text

‹ back to catalog

STARLINK-34366

NORAD 64281 · 2025-120AB

PAYLOAD ACTIVE UNKNOWN

§ Identity

Operator
Country
US
Launch date
2025-06-04
Launch site
AFWTR
Launch vehicle
Mass (kg)
RCS (m²)

Purposes: comms

External: N2YO · Heavens-Above · Gunter

§ Orbital elements

Epoch: 2026-09-20T22:56:19.709088Z

Period
93.85 min
Inclination
53.1592°
Eccentricity
0.0001384
Mean motion
15.34397975 rev/d
Perigee alt
461.8 km
Apogee alt
463.7 km
Semi-major
6,840.8 km
B*
3.4743e-4
RAAN
287.4771°
Arg perigee
31.9234°
Mean anomaly
328.1853°
Rev number
7,379

§ Raw data

STARLINK-343661 64281U 25120AB  26263.95578367  .00011379  00000+0  34743-3 0  99942 64281  53.1592 287.4771 0001384  31.9234 328.1853 15.34397975 73791

JSON: /api/v1/satellites/64281 · /tle

For live sub-satellite position, see the globe view (requires WebGL).

§ Visibility from observer

Set your observer location to see the next 7 days of passes ≥ 10°. The values pass through the URL so the page stays shareable.

No JS? Fill the form by hand. The geolocation button needs JavaScript.